Location: Kervinic
(48.4279°N, 4.7373°W)
Time: 06:15:56
(UTC+00:00)

Cosmos 540 Rocket - Pass Details

Date: 09 April 2020
Orbit: 741 x 753 km, 74.1° (Epoch: 29 May)

Event Time Altitude Azimuth Distance (km) Brightness Sun altitude
Rises 21:26:00 0° 339° (NNW) 3,214 7.8 -21.8°
Reaches altitude 10° 21:28:25 10° 343° (NNW) 2,284 6.8 -22.1°
Maximum altitude 21:33:33 62° 64° (ENE) 843 3.5 -22.7°
Enters shadow 21:34:17 55° 104° (ESE) 896 3.5 -22.8°
